Weather History for Paris / Charles De Gaulle, France

Change the Weather History Date:

Tuesday, June 4, 2013

  Actual Average Record
Temperature  
Mean Temperature 55 °F -  
Max Temperature 64 °F 71 °F 86 °F (2011)
Min Temperature 46 °F 54 °F 42 °F (2001)
Degree Days  
Heating Degree Days 10    
Growing Degree Days 5 (Base 50)    
Moisture  
Dew Point 44 °F    
Average Humidity 68    
Maximum Humidity 93    
Minimum Humidity 42    
Precipitation  
Precipitation 0.00 in - - ()
Sea Level Pressure  
Sea Level Pressure 30.19 in    
Wind  
Wind Speed 10 mph ()    
Max Wind Speed 16 mph    
Max Gust Speed 26 mph    
Visibility 5.8 miles    
Events      
Averages and records for this station are not official NWS values.
T = Trace of Precipitation, MM = Missing Value Source: Averaged Metar Reports

Daily Weather History Graph

Daily Weather History Graph

Search for Another Location

Airport:

Trip Planner

Search our weather history database for the weather conditions in past years. The results will help you decide how hot, cold, wet, or windy it might be!

Date:

Astronomy

Jun. 04, 2013 Rise Set
Actual Time 5:48 AM CEST 9:48 PM CEST
Civil Twilight 5:06 AM CEST 10:30 PM CEST
Nautical Twilight 4:08 AM CEST 11:28 PM CEST
Astronomical Twilight 2:28 AM CEST 1:12 AM CEST
Moon 3:29 AM CEST (6/4) 5:46 PM CEST (6/4)
Length of Visible Light 17h 23m
Length of Day
16h 00m
Waning Crescent, 16% of the Moon is Illuminated
Jun 4
Waning Crescent
Jun 8
New
Jun 16
First Quarter
Jun 23
Full
Jun 30
Last Quarter

Hourly Weather History & Observations

Time (CEST) Temp. Windchill Dew Point Humidity Pressure Visibility Wind Dir Wind Speed Gust Speed Precip Events Conditions
12:00 AM 50.0 °F - 42.8 °F 76% 30.30 in - North 9.2 mph - N/A   Clear
12:30 AM 50.0 °F - 42.8 °F 76% 30.30 in - North 8.1 mph - N/A   Clear
1:00 AM 48.2 °F - 42.8 °F 82% 30.30 in - North 8.1 mph - N/A   Clear
1:30 AM 48.2 °F - 42.8 °F 82% 30.30 in - North 8.1 mph - N/A   Clear
2:00 AM 46.4 °F 42.4 °F 42.8 °F 87% 30.27 in - North 8.1 mph - N/A   Clear
2:30 AM 46.4 °F 41.9 °F 44.6 °F 93% 30.27 in - North 9.2 mph - N/A   Clear
3:00 AM 46.4 °F 41.5 °F 42.8 °F 87% 30.27 in - North 10.4 mph - N/A   Clear
3:30 AM 46.4 °F 41.9 °F 44.6 °F 93% 30.27 in - North 9.2 mph - N/A   Clear
4:00 AM 46.4 °F 41.5 °F 44.6 °F 93% 30.27 in - North 10.4 mph - N/A   Clear
4:30 AM 46.4 °F 41.9 °F 44.6 °F 93% 30.24 in 6.2 mi North 9.2 mph - N/A   Partly Cloudy
5:00 AM 46.4 °F 41.1 °F 44.6 °F 93% 30.24 in 6.2 mi North 11.5 mph - N/A   Scattered Clouds
5:30 AM 46.4 °F 41.1 °F 42.8 °F 87% 30.24 in 4.3 mi North 11.5 mph - N/A   Scattered Clouds
6:00 AM 46.4 °F 40.7 °F 42.8 °F 87% 30.24 in 4.3 mi NNE 12.7 mph - N/A   Unknown
6:30 AM 46.4 °F 40.4 °F 42.8 °F 87% 30.24 in 4.3 mi NNE 13.8 mph - N/A   Scattered Clouds
7:00 AM 46.4 °F 40.7 °F 42.8 °F 87% 30.24 in 5.0 mi NNE 12.7 mph - N/A   Unknown
7:30 AM 46.4 °F 40.4 °F 42.8 °F 87% 30.24 in 5.0 mi NNE 13.8 mph 25.3 mph N/A   Mostly Cloudy
8:00 AM 48.2 °F - 44.6 °F 87% 30.24 in 5.6 mi NNE 13.8 mph - N/A   Mostly Cloudy
8:30 AM 50.0 °F - 44.6 °F 82% 30.24 in 6.2 mi NNE 15.0 mph - N/A   Mostly Cloudy
9:00 AM 51.8 °F - 44.6 °F 76% 30.24 in 6.2 mi NNE 15.0 mph - N/A   Mostly Cloudy
9:30 AM 51.8 °F - 44.6 °F 76% 30.24 in 6.2 mi NNE 15.0 mph - N/A   Mostly Cloudy
10:00 AM 53.6 °F - 44.6 °F 72% 30.21 in 6.2 mi NNE 12.7 mph - N/A   Mostly Cloudy
10:30 AM 55.4 °F - 44.6 °F 67% 30.21 in 6.2 mi NNE 13.8 mph - N/A   Mostly Cloudy
11:00 AM 55.4 °F - 44.6 °F 67% 30.21 in 6.2 mi NNE 13.8 mph 25.3 mph N/A   Mostly Cloudy
11:30 AM 57.2 °F - 44.6 °F 63% 30.21 in 6.2 mi North 15.0 mph - N/A   Mostly Cloudy
12:00 PM 55.4 °F - 44.6 °F 67% 30.21 in 6.2 mi North 12.7 mph - N/A   Scattered Clouds
12:30 PM 57.2 °F - 46.4 °F 67% 30.21 in 6.2 mi North 16.1 mph - N/A   Partly Cloudy
1:00 PM 55.4 °F - 44.6 °F 67% 30.21 in 6.2 mi NNE 12.7 mph - N/A   Partly Cloudy
1:07 PM 57.2 °F - 42.8 °F 59% 30.21 in 6.2 mi NNE 11.5 mph - N/A   Partly Cloudy
1:30 PM 57.2 °F - 42.8 °F 59% 30.18 in 6.2 mi NNE 12.7 mph - N/A   Partly Cloudy
2:00 PM 59.0 °F - 41.0 °F 51% 30.18 in 6.2 mi North 12.7 mph - N/A   Partly Cloudy
2:30 PM 60.8 °F - 42.8 °F 52% 30.15 in - North 15.0 mph 26.5 mph N/A   Clear
3:00 PM 62.6 °F - 41.0 °F 45% 30.15 in - NNE 13.8 mph - N/A   Clear
3:30 PM 62.6 °F - 42.8 °F 48% 30.15 in - NNE 12.7 mph - N/A   Clear
4:00 PM 62.6 °F - 44.6 °F 52% 30.15 in - NNE 13.8 mph - N/A   Clear
4:30 PM 62.6 °F - 44.6 °F 52% 30.15 in - NNE 13.8 mph - N/A   Clear
5:00 PM 62.6 °F - 44.6 °F 52% 30.12 in - North 12.7 mph - N/A   Clear
5:30 PM 62.6 °F - 42.8 °F 48% 30.12 in - North 13.8 mph - N/A   Clear
6:00 PM 64.4 °F - 41.0 °F 42% 30.12 in - North 12.7 mph - N/A   Clear
6:30 PM 64.4 °F - 42.8 °F 45% 30.12 in - NNE 11.5 mph - N/A   Clear
7:00 PM 62.6 °F - 44.6 °F 52% 30.12 in - Variable 11.5 mph - N/A   Clear
7:30 PM 62.6 °F - 44.6 °F 52% 30.09 in - NE 11.5 mph - N/A   Clear
8:00 PM 62.6 °F - 46.4 °F 55% 30.09 in - NNE 10.4 mph - N/A   Clear
8:30 PM 62.6 °F - 44.6 °F 52% 30.09 in - NE 9.2 mph - N/A   Clear
9:00 PM 62.6 °F - 44.6 °F 52% 30.09 in - NE 8.1 mph - N/A   Clear
9:30 PM 60.8 °F - 44.6 °F 55% 30.09 in - NNE 6.9 mph - N/A   Clear
10:00 PM 59.0 °F - 44.6 °F 59% 30.09 in - NNE 4.6 mph - N/A   Clear
10:30 PM 57.2 °F - 44.6 °F 63% 30.12 in - NNE 6.9 mph - N/A   Clear
11:00 PM 57.2 °F - 44.6 °F 63% 30.09 in - NNE 5.8 mph - N/A   Clear
11:30 PM 57.2 °F - 46.4 °F 67% 30.09 in - North 6.9 mph - N/A   Clear